Location: Beadle
(51.4667°N, 109.0000°W)
Time: 09:16:33
(UTC+00:00)

deb Explorer IX - Pass Details

Date: 06 June 2022
Orbit: 535 x 1068 km, 38.8° (Epoch: 04 July)

Event Time Altitude Azimuth Distance (km) Brightness Sun altitude
Rises 13:27:07 0° 205° (SSW) 3,665 ? 19.4°
Reaches altitude 10° 13:30:55 10° 183° (S) 2,799 ? 20.0°
Maximum altitude 13:34:38 15° 150° (SSE) 2,482 ? 20.6°
Drops below altitude 10° 13:38:25 10° 118° (ESE) 2,890 ? 21.2°
Sets 13:42:27 0° 97° (E) 3,853 ? 21.8°
